Погода в Барановичи

Хотите узнать прогноз погоды в Барановичи? Тогда Вам сюда: Погода в Барановичи

Поиск расширенной информации на нашем сайте:

Полезная информация:

Новости сайта



02.01.2020
Опубликован Долгосрочный прогноз погоды по городам России и ближнего зарубежья на январь 2020 года.
Карты: Прогноз на январь и февраль 2020 года, Сравнение прогнозируемой аномалии приземной температуры воздуха на январь 2020 года по разным моделям.




Погода в Барановичи - сегодня

Время (UTC), дата Ветер
(°,м/с) 
Видим.   Явления Облачность Т
(°С)
Тd
(°С)
f(%) Тe
(°С)
Pmin
(гПа)
dP
(гПа)
Po
(мм)
O2
(г/м3)
Тmin Tmax R s Состояние
почвы
09 22.10.21 270 (З) 6-12{14}  10 км    8/8 600 м 
[Sc]
+8.1 +1.9 65 +6  1005.7  2.4  737  288           
12 22.10.21 250 (З) 7-14{17}  10 км    8/6 600 м верхняя 
[Sc|Ci fib]
+9.6 -0.6 49 +8  1006.3  0.7  737  287           
15 22.10.21 230 (ЮЗ) 4{17}  10 км    9/8 600 м верхняя 
[Sc|Ci fib]
+8.8 +0.5 56 +8  1006.3  -0.1  737  288           
18 22.10.21 210 (ЮЗ) 5{12}  10 км    9/0 средняя 
[Ac As]
+8.2 +0.4 58 +7  1005.8  -0.5  737  288    +10.4       
21 22.10.21 220 (ЮЗ) 5{13}  10 км    9/9 600 м 
[Sc]
+7.9 +0.6 60 +6  1004.9  -0.9  736  288           
00 23.10.21 250 (З) 5-11{14}  10 км    9/9 1000 м 
[Sc]
+7.3 +2.4 71 +6  1005.4  0.4  737  289           
03 23.10.21 270 (З) 6-10{14}  10 км    9/9 600 м 
[Sc]
+5.3 +1.8 78 +3  1007.4  1.8  738  291           
06 23.10.21 250 (З) 5{11}  10 км    9/9 600 м 
[Sc]
+5.4 +1.5 76 +3  1009.8  2.3  740  292  +5.2         
09 23.10.21 250 (З) 5{10}  10 км    9/9 600 м 
[Sc]
+6.1 +2.4 77 +4  1012.2  2.4  741  292           
12 23.10.21 250 (З) 6-10{11}  10 км  {дождь}  9/9 1000 м 
[Sc]
+7.1 +3 75 +5  1014  1.9  743  291      0.1     
15 23.10.21 260 (З) 4{11}  10 км  в посл. час ливневой дождь  6/6 600 м 
[Sc]
+5.9 +3.9 87 +4  1015.6  1.4  744  293           
18 23.10.21 270 (З) 10 км    ясно 
+4.3 +2.6 89 +3  1018.2  2.4  746  295    +7.9  0.3     
21 23.10.21 270 (З) 10 км    4/0 средняя 
[Ac trans]
+4.7 +3.5 92 +4  1020.2  747  295           
00 24.10.21 300 (СЗ) 10 км  {ливн. осадки}  9/9 600 м 
[Sc]
+4.6 +2 83 +2  1022.2  749  296      0.1     
03 24.10.21 300 (СЗ) 5{11}  10 км    9/9 600 м 
[Sc]
+3.5 +0.5 81 +1  1024.7  2.3  750  298      0.1     
06 24.10.21 310 (СЗ) 10 км    8/8 600 м 
[Sc]
+2.7 +0.3 84 +1  1027.2  2.4  752  300  +2.1    0.1     
09 24.10.21 310 (СЗ) 10 км    6/6 600 м 
[Sc]
+4.2 -0.4 72 +2  1029.6  2.5  754  299           
12 24.10.21 330 (СЗ) 10 км    6/6 600 м 
[Sc]
+5.3 -0.8 65 +4  1030.5  0.9  755  298           
15 24.10.21 320 (СЗ) 10 км    9/0 средняя 
[Ac und]
+4.8 +0 71 +6  1031.3  0.8  755  299           
18 24.10.21 240 (ЮЗ) 10 км    ясно 
+3.4 +0.1 79 +4  1032  0.5  756  301    +6.4       
21 24.10.21 тихо ()   10 км    ясно 
+0.9 -0.3 92 +1  1032.6  0.4  756  304           
00 25.10.21 тихо ()   6000 м  дымка  ясно 
-0.6 -1 97 -1  1032.8  756  305           
03 25.10.21 тихо ()   6000 м  дымка  ясно 
-1.8 -1.9 99 -2  1032.9  756  307           
06 25.10.21 180 (Ю) 6000 м  дымка  ясно 
-1.1 -1.2 99 -1  1032.6  -0.2  756  306  -2.1         
09 25.10.21 210 (ЮЗ) 10 км    ясно 
+5.7 +0.8 71 +5  1031.8  -0.2  756  298           
Время (UTC), дата Ветер
(°,м/с) 
Видим.   Явления Облачность Т
(°С)
Тd
(°С)
f(%) Тe
(°С)
Pmin
(гПа)
dP
(гПа)
Po
(мм)
O2
(г/м3)
Тmin Tmax R s Состояние
почвы

Для получения пояснительной информации подведите курсор к названию столбца.

ПОГОДА в Барановичи - архив

Всё, что Вы хотите узнать о погоде в Барановичи - удобно и подробно!

Выберите нужную дату (начиная с 1 января 2019* года) и нажмите кнопку "Найти".
Будут отображены архивные сводки погоды по пункту Барановичи, начиная с указанной даты.


Отображать данные в формате CSV (для использования в таблицах Excel)


Внимание! Наш архив погоды предназначен исключительно для личного некоммерческого использования в познавательных целях. Если Вам необходимы официальные справки о состоянии погоды (для производственных, юридических, коммерческих и т.п. целей), обращайтесь в органы Росгидромета.

*Примечание: данная дата относится к архиву по метеостанциям СССР (Россия, СНГ, Балтия).
Архив по метеостанциям Зарубежной Европы и Азии (кроме Китая) хранится 10 дней, по другим регионам земного шара (Китай, Африка, Америка, Австралия, Океания) - 1 день.

Барановичи - район местоположения метеостанции


Название, широта, долгота, высота метеостанции:
Барановичи 53.1°ш. 26°д. 193 м над ур. моря [Беларусь]

Дополнительная информация

В oтличие oт бoльшинства пoгoдных сайтoв мы публикуем пoдрoбную метеoинфoрмацию в детальнoм прoфессиoнальнoм фoрмате.

Характеристики температуры и влажнoсти вoздуха измеряются на высoте 2 м в тени вдали oт зданий и деревьев.
Скoрoсть ветра измеряется на высoте 10 м (на урoвне рoста челoвека скoрoсть ветра ниже в 1.5-2 раза). Если метеoстанция нахoдится в гoрoде или в лесу, тo скoрoсть ветра занижена на 2-4 м/с пo сравнению с oткрытым местoм. Скoрoсть ветра над акватoриями крупных рек и oзёр, а также на вершинах хoлмoв на 2-5 м/с выше, чем в oбычных услoвиях.
Атмoсфернoе давление в разных тoчках местнoсти мoжет значительнo oтличаться oт давления на метеoстанции, в зависимoсти oт услoвий рельефа (при пoдъёме на 10 м давление пoнижается примернo на 1 мм рт.ст.).